Hinckley, MN

5:36 AM CST on February 24, 2017 (GMT -0600)
Hinckley

Weather History for K04W - November, 2012

Change the Weather History Date:

Tuesday, November 6, 2012

  Actual Average (KJMR) Record (KJMR)
Temperature  
Mean Temperature 36 °F -  
Max Temperature 39 °F 45 °F 71 °F (2001)
Min Temperature 32 °F 23 °F -5 °F (1951)
Degree Days  
Heating Degree Days 30    
Moisture  
Dew Point 34 °F    
Average Humidity 91    
Maximum Humidity 100    
Minimum Humidity 75    
Precipitation  
Precipitation 0.12 in - - ()
Sea Level Pressure  
Sea Level Pressure 29.81 in    
Wind  
Wind Speed 9 mph (West)    
Max Wind Speed 16 mph    
Max Gust Speed 20 mph    
Visibility 7 miles    
Events Rain , Snow    
Averages and records for this station are not official NWS values.
T = Trace of Precipitation, MM = Missing Value Source: NWS Daily Summary

Daily Weather History Graph

Daily Weather History Graph

Search for Another Location

Airport or City:

Trip Planner

Search our weather history database for the weather conditions in past years. The results will help you decide how hot, cold, wet, or windy it might be!

Date:

Astronomy

Nov. 06, 2012 Rise Set
Actual Time 7:00 AM CST 4:49 PM CST
Civil Twilight 6:28 AM CST 5:21 PM CST
Nautical Twilight 5:52 AM CST 5:57 PM CST
Astronomical Twilight 5:17 AM CST 6:32 PM CST
Moon 11:33 PM CST (11/6) 12:49 PM CST (11/6)
Length of Visible Light 10h 53m
Length of Day
9h 49m
Waning Gibbous, 53% of the Moon is Illuminated
Nov 6
Waning Gibbous
Nov 6
Last Quarter
Nov 13
New
Nov 20
First Quarter
Nov 28
Full

Hourly Weather History & Observations

Time (CST) Temp. Windchill Dew Point Humidity Pressure Visibility Wind Dir Wind Speed Gust Speed Precip Events Conditions
12:15 AM 37.4 °F 29.3 °F 35.6 °F 93% 29.89 in 4.0 mi South 12.7 mph 17.3 mph N/A   Overcast
12:35 AM 37.4 °F 30.8 °F 35.6 °F 93% 29.87 in 4.0 mi South 9.2 mph - N/A   Drizzle
12:55 AM 37.4 °F 30.3 °F 35.6 °F 93% 29.86 in 4.0 mi South 10.4 mph - N/A Rain Light Rain
1:15 AM 37.4 °F 30.8 °F 35.6 °F 93% 29.85 in 4.0 mi South 9.2 mph - N/A   Overcast
1:35 AM 37.4 °F 30.8 °F 37.4 °F 100% 29.84 in 2.5 mi South 9.2 mph - N/A Rain Rain
1:55 AM 37.4 °F 30.8 °F 37.4 °F 100% 29.84 in 2.5 mi SSW 9.2 mph - N/A Rain Heavy Rain
2:15 AM 37.4 °F 29.3 °F 35.6 °F 93% 29.83 in 4.0 mi SSW 12.7 mph 18.4 mph 0.01 in   Heavy Drizzle
2:35 AM 37.4 °F 28.2 °F 35.6 °F 93% 29.83 in 4.0 mi SW 16.1 mph - 0.03 in Rain Rain
2:55 AM 35.6 °F 28.6 °F 33.8 °F 93% 29.81 in 4.0 mi SSW 9.2 mph - 0.05 in   Drizzle
3:15 AM 35.6 °F 29.2 °F 33.8 °F 93% 29.80 in 5.0 mi SSW 8.1 mph - N/A Rain Rain
3:35 AM 35.6 °F 28.6 °F 33.8 °F 93% 29.80 in 5.0 mi South 9.2 mph - 0.02 in Rain Rain
3:55 AM 32.0 °F 24.2 °F 32.0 °F 100% 29.78 in 4.0 mi South 9.2 mph - 0.04 in Snow Light Snow
4:15 AM 32.0 °F 25.6 °F 32.0 °F 100% 29.78 in 2.5 mi South 6.9 mph - 0.01 in Snow Light Snow
4:35 AM 32.0 °F 25.6 °F 32.0 °F 100% 29.77 in 1.8 mi South 6.9 mph - 0.02 in Snow Light Snow
4:55 AM 32.0 °F 26.4 °F 32.0 °F 100% 29.76 in 2.5 mi South 5.8 mph - 0.02 in Snow Light Snow
5:15 AM 32.0 °F 27.5 °F 32.0 °F 100% 29.76 in 2.5 mi South 4.6 mph - 0.01 in Snow Light Snow
5:35 AM 32.0 °F 25.6 °F 32.0 °F 100% 29.75 in 4.0 mi South 6.9 mph - 0.01 in Snow Light Snow
5:55 AM 32.0 °F 26.4 °F 32.0 °F 100% 29.74 in 7.0 mi SSE 5.8 mph - 0.01 in   Light Drizzle
6:15 AM 32.0 °F 26.4 °F 32.0 °F 100% 29.73 in 3.0 mi South 5.8 mph - N/A Rain Rain
6:35 AM 33.8 °F 29.6 °F 32.0 °F 93% 29.72 in 3.0 mi South 4.6 mph - N/A Rain Rain
6:55 AM 33.8 °F 28.6 °F 33.8 °F 100% 29.72 in 4.0 mi South 5.8 mph - N/A Rain Rain
7:15 AM 33.8 °F 28.6 °F 33.8 °F 100% 29.72 in 4.0 mi SSW 5.8 mph - N/A   Light Drizzle
7:35 AM 33.8 °F 27.7 °F 33.8 °F 100% 29.73 in 1.0 mi SSW 6.9 mph - N/A Rain Rain
7:55 AM 35.6 °F 30.7 °F 35.6 °F 100% 29.73 in 1.2 mi SW 5.8 mph - N/A   Overcast
8:15 AM 35.6 °F 29.2 °F 35.6 °F 100% 29.73 in 1.8 mi SW 8.1 mph - N/A   Overcast
8:35 AM 35.6 °F 29.9 °F 35.6 °F 100% 29.73 in 3.0 mi WSW 6.9 mph - N/A   Overcast
8:55 AM 35.6 °F 29.9 °F 33.8 °F 93% 29.73 in 4.0 mi West 6.9 mph - N/A   Overcast
9:15 AM 35.6 °F 29.2 °F 35.6 °F 100% 29.73 in 5.0 mi West 8.1 mph - N/A   Overcast
9:35 AM 35.6 °F 30.7 °F 35.6 °F 100% 29.73 in 4.0 mi West 5.8 mph - N/A   Light Drizzle
9:55 AM 37.4 °F 30.8 °F 35.6 °F 93% 29.73 in 3.0 mi WSW 9.2 mph - N/A   Drizzle
10:15 AM 37.4 °F 32.8 °F 37.4 °F 100% 29.74 in 7.0 mi West 5.8 mph - N/A   Overcast
10:35 AM 37.4 °F 31.4 °F 35.6 °F 93% 29.74 in 10.0 mi West 8.1 mph - N/A   Overcast
10:55 AM 39.2 °F 33.0 °F 35.6 °F 87% 29.74 in 10.0 mi WNW 9.2 mph 16.1 mph N/A   Overcast
11:35 AM 39.2 °F 33.0 °F 33.8 °F 81% 29.74 in 10.0 mi NW 9.2 mph - N/A   Overcast
11:55 AM 39.2 °F 35.0 °F 33.8 °F 81% 29.74 in 10.0 mi WNW 5.8 mph - N/A   Overcast
12:15 PM 39.2 °F 33.0 °F 32.0 °F 75% 29.75 in 10.0 mi WNW 9.2 mph - N/A   Overcast
12:35 PM 39.2 °F 35.0 °F 33.8 °F 81% 29.74 in 10.0 mi WNW 5.8 mph - N/A   Overcast
12:55 PM 39.2 °F 34.2 °F 35.6 °F 87% 29.74 in 10.0 mi West 6.9 mph - N/A Rain Light Rain
1:15 PM 39.2 °F 32.5 °F 33.8 °F 81% 29.75 in 10.0 mi West 10.4 mph 19.6 mph N/A   Overcast
1:35 PM 37.4 °F 32.1 °F 33.8 °F 87% 29.75 in 7.0 mi WNW 6.9 mph - N/A   Drizzle
1:55 PM 37.4 °F 32.8 °F 33.8 °F 87% 29.75 in 7.0 mi NW 5.8 mph - N/A Rain Light Rain
2:35 PM 39.2 °F 33.0 °F 35.6 °F 87% 29.76 in 10.0 mi West 9.2 mph - N/A   Overcast
2:55 PM 39.2 °F 33.6 °F 33.8 °F 81% 29.76 in 10.0 mi WNW 8.1 mph 16.1 mph N/A   Overcast
3:15 PM 37.4 °F 32.1 °F 33.8 °F 87% 29.77 in 10.0 mi NW 6.9 mph - N/A   Overcast
3:35 PM 37.4 °F 33.8 °F 33.8 °F 87% 29.78 in 10.0 mi WNW 4.6 mph - N/A   Overcast
3:55 PM 37.4 °F 34.9 °F 33.8 °F 87% 29.79 in 10.0 mi WNW 3.5 mph - N/A   Overcast
4:15 PM 37.4 °F 29.8 °F 33.8 °F 87% 29.79 in 10.0 mi NW 11.5 mph 17.3 mph N/A   Overcast
4:35 PM 37.4 °F 32.8 °F 33.8 °F 87% 29.80 in 10.0 mi NW 5.8 mph 16.1 mph N/A   Overcast
4:55 PM 35.6 °F 28.6 °F 33.8 °F 93% 29.81 in 10.0 mi NW 9.2 mph - N/A   Overcast
5:15 PM 35.6 °F 28.0 °F 33.8 °F 93% 29.82 in 10.0 mi NW 10.4 mph - N/A   Overcast
5:35 PM 35.6 °F 28.6 °F 32.0 °F 87% 29.83 in 10.0 mi NNW 9.2 mph - N/A   Overcast
5:55 PM 35.6 °F 28.6 °F 32.0 °F 87% 29.84 in 10.0 mi NNW 9.2 mph - N/A   Overcast
6:15 PM 35.6 °F 29.2 °F 32.0 °F 87% 29.85 in 10.0 mi NW 8.1 mph - N/A   Overcast
6:35 PM 35.6 °F 29.9 °F 32.0 °F 87% 29.85 in 10.0 mi NW 6.9 mph - N/A   Overcast
6:55 PM 35.6 °F 29.2 °F 32.0 °F 87% 29.86 in 10.0 mi NW 8.1 mph - N/A   Overcast
7:15 PM 35.6 °F 29.2 °F 32.0 °F 87% 29.87 in 10.0 mi NW 8.1 mph - N/A   Overcast
7:35 PM 35.6 °F 30.7 °F 32.0 °F 87% 29.88 in 10.0 mi NNW 5.8 mph - N/A   Overcast
7:55 PM 35.6 °F 29.2 °F 32.0 °F 87% 29.88 in 10.0 mi NNW 8.1 mph - N/A   Overcast
8:15 PM 35.6 °F 30.7 °F 32.0 °F 87% 29.89 in 10.0 mi NNW 5.8 mph - N/A   Overcast
8:35 PM 35.6 °F 29.9 °F 32.0 °F 87% 29.89 in 10.0 mi NNW 6.9 mph - N/A   Overcast
8:55 PM 35.6 °F 29.2 °F 32.0 °F 87% 29.90 in 10.0 mi NNW 8.1 mph - N/A   Overcast
9:15 PM 35.6 °F 30.7 °F 32.0 °F 87% 29.91 in 10.0 mi NNW 5.8 mph - N/A   Overcast
9:35 PM 35.6 °F 29.9 °F 32.0 °F 87% 29.91 in 10.0 mi NW 6.9 mph - N/A   Overcast
9:55 PM 35.6 °F 29.9 °F 32.0 °F 87% 29.92 in 10.0 mi NNW 6.9 mph - N/A   Overcast
10:15 PM 35.6 °F 29.9 °F 32.0 °F 87% 29.92 in 10.0 mi NW 6.9 mph - N/A   Overcast
10:35 PM 35.6 °F 29.9 °F 32.0 °F 87% 29.92 in 10.0 mi NNW 6.9 mph - N/A   Overcast
10:55 PM 35.6 °F 30.7 °F 32.0 °F 87% 29.93 in 10.0 mi NNW 5.8 mph - N/A   Overcast
11:15 PM 35.6 °F 29.9 °F 32.0 °F 87% 29.94 in 10.0 mi NW 6.9 mph - N/A   Overcast
11:35 PM 35.6 °F 30.7 °F 32.0 °F 87% 29.95 in 10.0 mi NNW 5.8 mph - N/A   Overcast
11:55 PM 35.6 °F 29.9 °F 32.0 °F 87% 29.96 in 10.0 mi NW 6.9 mph - N/A   Overcast